DMC3-FM2

Last updated on Fri Jun 19 2026 20:04:07 GMT+0000 (Coordinated Universal Time)

1 40716U 15032B 26170.58458765 .00000649 00000+0 80629-4 0 9990 2 40716 97.6506 37.2401 0007444 58.1632 302.0307 14.85746572590260
UTC large
Height (km)
Speed (km/s)
/
Latitude / Longitude
Inclination (degrees)
Orbital Period (minutes)
Azimuth
Elevation
Range (km)
Doppler Factor

Next 0 passes for location: London (51.5072 / 0.1276)

Sorry there are no passes over London.
DMC3-FM2